Flag for U.S.A. Weather past 2 weeks in Jacksonville, North Carolina, U.S.A.

Now
63 °F

Passing clouds.


Feels Like: 63 °F
Forecast: 40 / 58 °F
Wind: 7 mph from North

Location: Jacksonville - New River

Current Time: Mar 2, 2015 at 6:35:40 PM

Latest Report: Mar 2, 2015 at 3:56 PM


Visibility: 10 mi

Pressure: 30.22 "Hg

Humidity: 54%

Dew point: 46 °F

Location of JacksonvilleLocation

Historic Weather in Jacksonville — Graph

°F

Jacksonville temperature yesterday

Maximum temperature yesterday: 53 °F (at 12:56 PM)
Minimum temperature yesterday: 34 °F (at 3:56 AM)
Average temperature yesterday: 43 °F

Past Weeks' High & Low Weather Summary

 TemperatureHumidityPressure
High66 °F (Feb 22, 2:56 PM)100% (Feb 23, 4:01 AM)30.73 "Hg (Feb 23, 4:01 AM)
Low12 °F (Feb 20, 6:56 AM)20% (Feb 15, 3:56 PM)29.51 "Hg (Feb 26, 3:56 AM)
Average36 °F70%30.20 "Hg
* Reported Feb 15 3:56 PM — Mar 2 3:56 PM, Jacksonville, Weather by CustomWeather, © 2015

Note: Actual official high and low records may vary slightly from our data, if they occured in-between our weather recording intervals... More about our weather records

Advertising

Jacksonville weather history for previous 24 hours

 ConditionsComfort  
Time TempWeatherWind HumidityBarometerVisibility
3:56 PM
Mon, Mar 2
63 °FPassing clouds.7 mph54%30.22 "Hg10 mi
2:56 PM62 °FPassing clouds.14 mph58%30.22 "Hg10 mi
1:56 PM61 °FPassing clouds.10 mph62%30.21 "Hg10 mi
12:56 PM57 °FScattered clouds.5 mph72%30.23 "Hg10 mi
11:56 AM51 °FLow clouds.9 mph86%30.26 "Hg8 mi
10:56 AM50 °FFog.7 mph89%30.26 "Hg6 mi
9:56 AM48 °FFog.8 mph93%30.25 "Hg6 mi
8:56 AM47 °FLow clouds.8 mph93%30.24 "Hg8 mi
7:56 AM45 °FLow clouds.7 mph93%30.22 "Hg8 mi
6:56 AM44 °FFog.6 mph96%30.22 "Hg3 mi
6:04 AM43 °FFog.6 mph97%30.21 "Hg2 mi
5:56 AM43 °FFog.5 mph97%30.22 "Hg3 mi
4:56 AM43 °FLow clouds.7 mph97%30.23 "Hg7 mi
3:56 AM44 °FLow clouds.6 mph96%30.23 "Hg7 mi
2:56 AM44 °FFog.6 mph96%30.25 "Hg2 mi
1:59 AM43 °FFog.3 mph97%30.26 "Hg1 mi
12:56 AM42 °FFog.No wind96%30.30 "Hg1 mi
12:04 AM42 °FFog.5 mph96%30.32 "Hg1 mi
11:56 PM
Sun, Mar 1
42 °FFog.3 mph96%30.32 "Hg1 mi
10:56 PM42 °FFog.No wind92%30.33 "Hg5 mi
9:56 PM41 °FFog.3 mph93%30.35 "Hg6 mi
8:56 PM42 °FLight rain. Fog.9 mph92%30.38 "Hg3 mi
7:56 PM43 °FRain. Fog.9 mph93%30.37 "Hg2 mi
6:56 PM45 °FRain. Fog.13 mph93%30.38 "Hg2 mi
Weather by CustomWeather, © 2015

See weather overviewHow to use our weather pages